TURKSAT 4B

Last updated on Sun Jun 21 2026 00:03:06 GMT+0000 (Coordinated Universal Time)

1 40984U 15060A 26171.40177720 .00000111 00000+0 00000+0 0 9993 2 40984 0.0146 349.5650 0002276 93.7876 19.8648 1.00269072 39136
UTC large
Height (km)
Speed (km/s)
/
Latitude / Longitude
Inclination (degrees)
Orbital Period (minutes)
Azimuth
Elevation
Range (km)
Doppler Factor

Next 0 passes for location: London (51.5072 / 0.1276)

No passes found over London.
TURKSAT 4B